Flag for U.S.A. Weather past 2 weeks in Babylon, New York, U.S.A.

Now
76 °F

Low clouds.


Feels Like: 76 °F
Forecast: 71 / 87 °F
Wind: 7 mph from Southwest

Location: Republic Airport

Current Time: Sep 3, 2015 at 1:40:05 AM

Latest Report: Sep 3, 2015 at 12:53 AM


Visibility: 9 mi

Pressure: 29.88 "Hg

Humidity: 88%

Dew point: 72 °F

Location of BabylonLocation

Historic Weather in Babylon — Graph

°F

Babylon temperature yesterday

Maximum temperature yesterday: 85 °F (at 11:53 AM)
Minimum temperature yesterday: 69 °F (at 6:53 AM)
Average temperature yesterday: 78 °F

Past Weeks' High & Low Weather Summary

 TemperatureHumidityPressure
High90 °F (Aug 31, 2:53 PM)94% (Aug 19, 2:53 AM)30.22 "Hg (Aug 19, 2:53 AM)
Low63 °F (Aug 29, 5:53 AM)34% (Aug 26, 1:53 PM)29.83 "Hg (Aug 25, 4:53 PM)
Average77 °F67%30.02 "Hg
* Reported Aug 18 11:53 PM — Sep 2 11:53 PM, Babylon, Weather by CustomWeather, © 2015

Note: Actual official high and low records may vary slightly from our data, if they occured in-between our weather recording intervals... More about our weather records

Advertising

Babylon weather history for previous 24 hours

 ConditionsComfort  
Time TempWeatherWind HumidityBarometerVisibility
11:53 PM
Wed, Sep 2
76 °FClear.5 mph82%29.89 "Hg10 mi
10:53 PM76 °FClear.5 mph77%29.90 "Hg10 mi
9:53 PM77 °FClear.6 mph69%29.91 "Hg10 mi
8:53 PM77 °FClear.7 mph66%29.91 "Hg10 mi
7:53 PM78 °FSunny.9 mph66%29.91 "Hg10 mi
6:53 PM79 °FSunny.10 mph60%29.91 "Hg10 mi
5:53 PM81 °FSunny.12 mph54%29.92 "Hg10 mi
4:53 PM83 °FSunny.12 mph51%29.93 "Hg10 mi
3:53 PM84 °FSunny.12 mph48%29.94 "Hg10 mi
2:53 PM84 °FSunny.14 mph51%29.96 "Hg10 mi
1:53 PM84 °FSunny.14 mph53%29.97 "Hg10 mi
12:53 PM85 °FSunny.10 mph51%29.99 "Hg10 mi
11:53 AM85 °FSunny.10 mph48%30.01 "Hg10 mi
10:53 AM84 °FSunny.12 mph53%30.02 "Hg10 mi
9:53 AM82 °FSunny.8 mph60%30.03 "Hg10 mi
8:53 AM77 °FSunny.5 mph79%30.03 "Hg7 mi
7:59 AM73 °FFog.3 mph94%30.04 "Hg2 mi
6:53 AM69 °FFog.No wind93%30.03 "Hg2 mi
5:53 AM70 °FFog.No wind90%30.02 "Hg0 mi
4:53 AM70 °FFog.No wind90%30.02 "Hg6 mi
3:53 AM72 °FFog.No wind91%30.03 "Hg3 mi
2:53 AM72 °FFog.No wind91%30.04 "Hg6 mi
1:53 AM72 °FClear.No wind87%30.05 "Hg7 mi
Weather by CustomWeather, © 2015

See weather overviewHow to use our weather pages